| time (UTC) | temp F | wind direction | speed MPH | gust MPH | rain 1hr in | rain 24hr in | rain mn in | humidity % | barometer mb |
| 20260906224004 | 76 | 256 | 0.0 | 0.0 | 0.00 | 0.00 | 0.00 | 52 | 1016.3 |
| 20260906223003 | 77 | 257 | 0.0 | 0.0 | 0.00 | 0.00 | 0.00 | 51 | 1016.3 |
| 20260906222003 | 77 | 256 | 0.0 | 0.0 | 0.00 | 0.00 | 0.00 | 47 | 1016.3 |
| 20260906221004 | 77 | 256 | 0.0 | 0.0 | 0.00 | 0.00 | 0.00 | 48 | 1016.3 |
| 20260906220004 | 78 | 213 | 0.0 | 0.0 | 0.00 | 0.00 | 0.00 | 48 | 1016.3 |
| 20260906215004 | 78 | 129 | 0.0 | 0.0 | 0.00 | 0.00 | 0.00 | 51 | 1016.2 |
| 20260906214004 | 79 | 240 | 0.0 | 2.0 | 0.00 | 0.00 | 0.00 | 50 | 1016.1 |
| 20260906213003 | 79 | 249 | 0.0 | 0.0 | 0.00 | 0.00 | 0.00 | 49 | 1016.1 |
| 20260906212004 | 79 | 192 | 0.0 | 2.0 | 0.00 | 0.00 | 0.00 | 48 | 1016.1 |
| 20260906211004 | 79 | 21 | 0.0 | 2.0 | 0.00 | 0.00 | 0.00 | 49 | 1016.0 |
| 20260906210004 | 79 | 235 | 0.0 | 4.0 | 0.00 | 0.00 | 0.00 | 47 | 1016.0 |
| 20260906205004 | 80 | 259 | 5.0 | 5.0 | 0.00 | 0.00 | 0.00 | 48 | 1016.0 |
| 20260906204004 | 79 | 236 | 0.0 | 5.0 | 0.00 | 0.00 | 0.00 | 47 | 1015.9 |
| 20260906203003 | 79 | 186 | 0.0 | 1.0 | 0.00 | 0.00 | 0.00 | 47 | 1015.9 |
| 20260906201004 | 79 | 267 | 0.0 | 0.0 | 0.00 | 0.00 | 0.00 | 49 | 1016.0 |
| 20260906200004 | 79 | 293 | 0.0 | 0.0 | 0.00 | 0.00 | 0.00 | 49 | 1015.9 |
| 20260906195003 | 79 | 303 | 0.0 | 0.0 | 0.00 | 0.00 | 0.00 | 50 | 1015.9 |
| 20260906194004 | 79 | 289 | 0.0 | 0.0 | 0.00 | 0.00 | 0.00 | 49 | 1016.0 |
| 20260906193004 | 80 | 289 | 0.0 | 2.0 | 0.00 | 0.00 | 0.00 | 48 | 1016.1 |
| 20260906192004 | 80 | 184 | 0.0 | 0.0 | 0.00 | 0.00 | 0.00 | 49 | 1016.0 |
| 20260906191004 | 80 | 199 | 0.0 | 0.0 | 0.00 | 0.00 | 0.00 | 51 | 1015.9 |
| 20260906190004 | 80 | 59 | 0.0 | 0.0 | 0.00 | 0.00 | 0.00 | 47 | 1016.0 |
| 20260906185004 | 80 | 198 | 0.0 | 5.0 | 0.00 | 0.00 | 0.00 | 48 | 1016.1 |
| 20260906184003 | 79 | 103 | 0.0 | 2.0 | 0.00 | 0.00 | 0.00 | 52 | 1016.1 |
| 20260906183003 | 79 | 231 | 0.0 | 5.0 | 0.00 | 0.00 | 0.00 | 48 | 1016.2 |
| 20260906182004 | 79 | 235 | 1.0 | 5.0 | 0.00 | 0.00 | 0.00 | 51 | 1016.3 |
| 20260906181004 | 79 | 119 | 0.0 | 4.0 | 0.00 | 0.00 | 0.00 | 49 | 1016.3 |
| 20260906175004 | 78 | 167 | 0.0 | 1.0 | 0.00 | 0.00 | 0.00 | 51 | 1016.4 |
| 20260906174003 | 79 | 58 | 0.0 | 0.0 | 0.00 | 0.00 | 0.00 | 49 | 1016.5 |
| 20260906172003 | 79 | 198 | 1.0 | 4.0 | 0.00 | 0.00 | 0.00 | 52 | 1016.6 |
| 20260906171003 | 77 | 291 | 0.0 | 6.0 | 0.00 | 0.00 | 0.00 | 50 | 1016.8 |
| 20260906170003 | 77 | 57 | 0.0 | 1.0 | 0.00 | 0.00 | 0.00 | 52 | 1016.8 |
| 20260906165003 | 78 | 59 | 2.0 | 4.0 | 0.00 | 0.00 | 0.00 | 51 | 1016.8 |
| 20260906163004 | 76 | 210 | 0.0 | 2.0 | 0.00 | 0.00 | 0.00 | 56 | 1017.0 |
| 20260906162004 | 76 | 46 | 0.0 | 4.0 | 0.00 | 0.00 | 0.00 | 56 | 1016.9 |
| 20260906161003 | 74 | 269 | 0.0 | 2.0 | 0.00 | 0.00 | 0.00 | 58 | 1016.9 |
| 20260906155003 | 75 | 227 | 0.0 | 5.0 | 0.00 | 0.00 | 0.00 | 54 | 1017.0 |
| 20260906154003 | 76 | 321 | 0.0 | 2.0 | 0.00 | 0.00 | 0.00 | 54 | 1016.9 |
| 20260906153003 | 77 | 182 | 0.0 | 4.0 | 0.00 | 0.00 | 0.00 | 59 | 1016.8 |
| 20260906152004 | 76 | 178 | 1.0 | 4.0 | 0.00 | 0.00 | 0.00 | 56 | 1016.8 |
| 20260906151003 | 76 | 173 | 0.0 | 5.0 | 0.00 | 0.00 | 0.00 | 58 | 1016.8 |
| 20260906150004 | 75 | 9 | 1.0 | 4.0 | 0.00 | 0.00 | 0.00 | 59 | 1016.8 |
| 20260906144003 | 71 | 239 | 1.0 | 5.0 | 0.00 | 0.00 | 0.00 | 62 | 1016.6 |
| 20260906143004 | 71 | 229 | 2.0 | 4.0 | 0.00 | 0.00 | 0.00 | 64 | 1016.6 |
| 20260906142004 | 70 | 211 | 0.0 | 4.0 | 0.00 | 0.00 | 0.00 | 64 | 1016.6 |
| 20260906141004 | 70 | 257 | 0.0 | 4.0 | 0.00 | 0.00 | 0.00 | 65 | 1016.5 |
| 20260906140004 | 69 | 323 | 0.0 | 3.0 | 0.00 | 0.00 | 0.00 | 66 | 1016.5 |
| 20260906132004 | 67 | 294 | 0.0 | 0.0 | 0.00 | 0.00 | 0.00 | 71 | 1016.3 |
| 20260906131004 | 66 | 296 | 0.0 | 0.0 | 0.00 | 0.00 | 0.00 | 72 | 1016.4 |
| 20260906130004 | 66 | 297 | 0.0 | 0.0 | 0.00 | 0.00 | 0.00 | 72 | 1016.3 |
| 20260906124004 | 65 | 297 | 0.0 | 0.0 | 0.00 | 0.00 | 0.00 | 73 | 1016.2 |
| 20260906123004 | 64 | 306 | 0.0 | 0.0 | 0.00 | 0.00 | 0.00 | 73 | 1016.3 |
| 20260906121003 | 64 | 307 | 0.0 | 0.0 | 0.00 | 0.00 | 0.00 | 73 | 1016.1 |
| 20260906120004 | 64 | 307 | 0.0 | 2.0 | 0.00 | 0.00 | 0.00 | 72 | 1015.9 |
| 20260906115003 | 64 | 308 | 0.0 | 1.0 | 0.00 | 0.00 | 0.00 | 72 | 1015.9 |
| 20260906114004 | 63 | 317 | 0.0 | 0.0 | 0.00 | 0.00 | 0.00 | 72 | 1015.7 |
| 20260906113004 | 63 | 317 | 0.0 | 1.0 | 0.00 | 0.00 | 0.00 | 71 | 1015.7 |
| 20260906112004 | 63 | 317 | 0.0 | 1.0 | 0.00 | 0.00 | 0.00 | 71 | 1015.5 |
| 20260906111004 | 63 | 317 | 0.0 | 1.0 | 0.00 | 0.00 | 0.00 | 71 | 1015.4 |
| 20260906105003 | 64 | 317 | 0.0 | 0.0 | 0.00 | 0.00 | 0.00 | 71 | 1015.1 |
| 20260906104004 | 64 | 317 | 0.0 | 0.0 | 0.00 | 0.00 | 0.00 | 71 | 1014.9 |
| 20260906103003 | 64 | 317 | 0.0 | 0.0 | 0.00 | 0.00 | 0.00 | 71 | 1014.8 |
| 20260906102003 | 64 | 317 | 0.0 | 0.0 | 0.00 | 0.00 | 0.00 | 71 | 1014.6 |
| 20260906101004 | 64 | 317 | 0.0 | 0.0 | 0.00 | 0.00 | 0.00 | 71 | 1014.4 |
| 20260906100003 | 64 | 317 | 0.0 | 2.0 | 0.00 | 0.00 | 0.00 | 71 | 1014.5 |
| 20260906095003 | 64 | 317 | 0.0 | 0.0 | 0.00 | 0.00 | 0.00 | 70 | 1014.4 |
| 20260906094004 | 64 | 317 | 0.0 | 0.0 | 0.00 | 0.00 | 0.00 | 70 | 1014.4 |
| 20260906092004 | 64 | 317 | 0.0 | 0.0 | 0.00 | 0.00 | 0.00 | 69 | 1014.0 |
| 20260906091004 | 64 | 317 | 0.0 | 0.0 | 0.00 | 0.00 | 0.00 | 69 | 1013.9 |
| 20260906090004 | 64 | 317 | 0.0 | 0.0 | 0.00 | 0.00 | 0.00 | 69 | 1013.7 |
| 20260906085003 | 65 | 317 | 0.0 | 0.0 | 0.00 | 0.00 | 0.00 | 69 | 1013.7 |
| 20260906084004 | 65 | 317 | 0.0 | 0.0 | 0.00 | 0.00 | 0.00 | 69 | 1013.6 |
| 20260906083003 | 65 | 317 | 0.0 | 1.0 | 0.00 | 0.00 | 0.00 | 68 | 1013.6 |
| 20260906081003 | 65 | 317 | 0.0 | 0.0 | 0.00 | 0.00 | 0.00 | 68 | 1013.4 |
| 20260906080004 | 65 | 317 | 0.0 | 0.0 | 0.00 | 0.00 | 0.00 | 68 | 1013.4 |
| 20260906075003 | 65 | 317 | 0.0 | 1.0 | 0.00 | 0.00 | 0.00 | 68 | 1013.5 |
| 20260906074004 | 65 | 317 | 0.0 | 0.0 | 0.00 | 0.00 | 0.00 | 68 | 1013.5 |
| 20260906073004 | 65 | 317 | 0.0 | 0.0 | 0.00 | 0.00 | 0.00 | 68 | 1013.5 |
| 20260906072004 | 66 | 317 | 0.0 | 1.0 | 0.00 | 0.00 | 0.00 | 68 | 1013.4 |
| 20260906070004 | 66 | 317 | 0.0 | 0.0 | 0.00 | 0.00 | 0.00 | 67 | 1013.5 |
| 20260906065003 | 66 | 317 | 0.0 | 0.0 | 0.00 | 0.00 | 0.00 | 67 | 1013.5 |
| 20260906064004 | 66 | 317 | 0.0 | 0.0 | 0.00 | 0.00 | 0.00 | 67 | 1013.4 |
| 20260906063004 | 66 | 317 | 0.0 | 0.0 | 0.00 | 0.00 | 0.00 | 67 | 1013.5 |
| 20260906062005 | 66 | 317 | 0.0 | 0.0 | 0.00 | 0.00 | 0.00 | 67 | 1013.5 |
| 20260906061005 | 66 | 317 | 0.0 | 0.0 | 0.00 | 0.00 | 0.00 | 67 | 1013.5 |
| 20260906055004 | 66 | 317 | 0.0 | 0.0 | 0.00 | 0.00 | 0.00 | 67 | 1013.5 |
| 20260906053005 | 67 | 317 | 0.0 | 0.0 | 0.00 | 0.00 | 0.00 | 67 | 1013.8 |
| 20260906052004 | 67 | 318 | 0.0 | 0.0 | 0.00 | 0.00 | 0.00 | 67 | 1013.8 |
| 20260906051005 | 67 | 318 | 0.0 | 0.0 | 0.00 | 0.00 | 0.00 | 67 | 1014.0 |
| 20260906045005 | 67 | 318 | 0.0 | 0.0 | 0.00 | 0.00 | 0.00 | 66 | 1013.9 |
| 20260906044005 | 67 | 318 | 0.0 | 0.0 | 0.00 | 0.00 | 0.00 | 66 | 1014.0 |
| 20260906043005 | 68 | 318 | 0.0 | 0.0 | 0.00 | 0.00 | 0.00 | 66 | 1014.0 |
| 20260906042004 | 68 | 318 | 0.0 | 0.0 | 0.00 | 0.00 | 0.00 | 66 | 1013.9 |
| 20260906041005 | 68 | 318 | 0.0 | 0.0 | 0.00 | 0.00 | 0.00 | 66 | 1013.9 |
| 20260906040005 | 68 | 318 | 0.0 | 0.0 | 0.00 | 0.00 | 0.01 | 66 | 1014.0 |
| 20260906035005 | 68 | 318 | 0.0 | 0.0 | 0.00 | 0.00 | 0.01 | 66 | 1014.0 |
| 20260906034005 | 68 | 318 | 0.0 | 0.0 | 0.00 | 0.00 | 0.01 | 66 | 1014.0 |
| 20260906033003 | 68 | 318 | 0.0 | 0.0 | 0.00 | 0.00 | 0.01 | 66 | 1013.9 |
| 20260906032003 | 68 | 318 | 0.0 | 0.0 | 0.00 | 0.00 | 0.01 | 66 | 1013.9 |
| 20260906031003 | 68 | 318 | 0.0 | 0.0 | 0.00 | 0.00 | 0.01 | 67 | 1013.9 |
| 20260906025004 | 68 | 318 | 0.0 | 0.0 | 0.00 | 0.00 | 0.01 | 66 | 1013.7 |
| 20260906024004 | 68 | 318 | 0.0 | 0.0 | 0.00 | 0.00 | 0.01 | 67 | 1013.7 |
| 20260906022004 | 69 | 319 | 0.0 | 0.0 | 0.00 | 0.00 | 0.01 | 67 | 1013.6 |
| 20260906021003 | 69 | 319 | 0.0 | 0.0 | 0.00 | 0.00 | 0.01 | 67 | 1013.4 |
| 20260906020004 | 69 | 319 | 0.0 | 0.0 | 0.00 | 0.00 | 0.01 | 67 | 1013.4 |
| 20260906015004 | 70 | 319 | 0.0 | 0.0 | 0.00 | 0.00 | 0.01 | 67 | 1013.4 |
| 20260906014003 | 70 | 319 | 0.0 | 0.0 | 0.00 | 0.00 | 0.01 | 67 | 1013.4 |
| 20260906012003 | 70 | 319 | 0.0 | 0.0 | 0.00 | 0.00 | 0.01 | 66 | 1013.2 |
| 20260906011005 | 71 | 319 | 0.0 | 0.0 | 0.00 | 0.00 | 0.01 | 65 | 1013.1 |
| 20260906005004 | 71 | 319 | 0.0 | 0.0 | 0.00 | 0.00 | 0.01 | 64 | 1013.0 |
| 20260906004004 | 72 | 319 | 0.0 | 0.0 | 0.00 | 0.00 | 0.01 | 63 | 1012.9 |
| 20260906003004 | 72 | 319 | 0.0 | 0.0 | 0.00 | 0.00 | 0.01 | 63 | 1012.8 |
| 20260906002005 | 72 | 319 | 0.0 | 0.0 | 0.00 | 0.00 | 0.01 | 62 | 1012.8 |
| 20260906000005 | 73 | 319 | 0.0 | 0.0 | 0.00 | 0.00 | 0.01 | 61 | 1012.4 |
| 20260905234005 | 74 | 319 | 0.0 | 0.0 | 0.00 | 0.00 | 0.01 | 59 | 1012.2 |
| 20260905233005 | 74 | 319 | 0.0 | 0.0 | 0.00 | 0.00 | 0.01 | 60 | 1012.2 |
| 20260905232004 | 75 | 319 | 0.0 | 0.0 | 0.00 | 0.00 | 0.01 | 59 | 1012.0 |
| 20260905231005 | 76 | 319 | 0.0 | 0.0 | 0.00 | 0.00 | 0.01 | 58 | 1012.1 |
| 20260905230005 | 76 | 319 | 0.0 | 0.0 | 0.00 | 0.00 | 0.01 | 58 | 1012.2 |